SBIRS GEO-6 (USA 336)

Last updated on Wed Jul 02 2025 00:02:48 GMT+0000 (Coordinated Universal Time)

1 53355U 22092A 25182.45834454 -.00000289 00000+0 00000+0 0 9999 2 53355 3.8894 313.0970 0001671 139.6989 130.9573 1.00271646 10712
UTC large
Height (km)
Speed (km/s)
/
Latitude / Longitude
Inclination (degrees)
Orbital Period (minutes)
Azimuth
Elevation
Range (km)
Doppler Factor

Next 0 passes for location: London (51.5072 / 0.1276)

Sorry there are no passes over London.